Wind_Speed
15 15 16 16 17 16 16 17 18 18 17 19 21 23 25 26 29 27 7 10 5 9 14 11 7 17 15 5 8 2 2 11 9 7 13 13 16 11 2 2 1 3 2 6 10
17 17 16 16 15 17 19 19 17 18 18 17 18 20 21 25 25 19 13 9 7 4 4 5 7 8 3 5 3 4 3 8 8 15 13 20 13 16 7 6 5 3 5 11 12
15 16 16 16 17 16 17 18 16 16 18 16 17 19 17 20 7 4 6 4 6 7 8 9 14 8 7 5 6 6 13 13 16 16 18 15 22 17 12 10 6 6 8 8 6
13 13 16 17 16 17 16 16 14 16 17 16 15 17 13 7 7 3 3 11 13 10 6 5 5 5 4 6 6 11 15 14 17 16 15 20 19 18 10 9 9 11 7 3 3
14 15 16 17 16 17 17 16 15 15 14 17 12 14 5 3 14 22 25 25 14 9 8 7 8 6 9 6 9 12 11 13 15 14 11 15 15 21 21 9 10 12 14 9 7
16 16 18 16 17 16 15 13 13 13 14 15 10 9 2 10 13 17 17 25 16 6 7 11 6 8 9 11 12 12 19 21 17 19 16 19 22 16 11 10 11 10 14 10 9
16 19 19 17 16 15 14 13 12 11 13 11 11 5 8 19 17 19 21 14 15 17 8 19 20 6 8 14 11 11 17 19 13 8 8 12 29 22 18 17 19 15 16 11 10
18 19 19 18 15 15 14 10 11 10 12 10 9 4 8 23 25 28 18 20 16 19 22 16 17 6 4 7 11 13 11 15 5 12 16 13 36 12 11 13 19 22 16 11 9
19 20 20 18 15 14 9 8 8 11 10 10 5 5 10 16 12 22 21 17 17 19 18 10 8 4 5 5 7 6 13 15 26 13 19 14 27 20 13 18 23 20 14 12 9
18 20 19 18 16 12 8 5 11 13 6 4 9 5 9 6 10 9 16 14 7 6 2 6 3 4 1 4 8 6 8 14 21 13 13 20 22 22 17 18 19 14 9 9 9
19 20 19 17 12 9 17 15 4 2 7 12 12 7 2 2 11 13 14 10 6 2 6 7 6 8 14 13 16 18 18 19 21 16 12 19 19 10 20 22 19 14 4 5 14
21 21 17 15 7 13 16 4 5 1 9 24 24 21 21 15 7 10 9 4 7 8 8 7 15 13 15 16 17 18 17 19 22 18 11 16 21 18 21 19 22 15 8 5 19
22 21 15 10 10 21 20 18 4 8 5 8 17 13 14 24 17 21 13 13 13 11 12 14 7 10 15 15 13 18 9 17 19 16 14 12 20 18 26 19 20 18 18 15 24
24 21 14 9 22 20 7 20 9 4 4 7 8 8 13 8 8 29 29 14 8 19 12 13 15 16 16 16 6 17 7 3 12 9 9 10 12 24 18 20 14 17 14 20 21
24 19 12 23 11 12 9 15 12 2 2 4 6 14 15 14 3 3 25 11 19 16 7 13 9 7 2 2 5 3 7 5 3 7 11 13 7 21 2 14 10 11 13 19 17
22 18 14 25 13 15 17 22 7 3 11 5 6 6 9 19 5 5 4 2 3 4 8 16 4 4 2 3 2 4 4 3 3 1 9 15 14 18 12 7 6 7 9 23 20
22 13 22 27 9 23 30 9 4 6 5 6 5 9 12 9 10 9 8 6 6 3 4 2 8 3 5 4 5 5 5 3 3 4 6 7 7 13 10 11 6 15 14 20 19
13 15 14 19 20 37 20 6 7 13 18 3 5 6 14 11 11 15 13 13 7 6 1 5 5 11 10 13 5 6 8 4 5 2 4 5 5 5 9 18 18 19 24 19 18
6 6 8 14 33 36 8 12 11 8 11 9 17 11 16 9 11 13 18 16 12 13 9 5 6 5 8 6 10 3 6 2 6 5 4 5 4 7 13 8 19 19 20 18 17
1 1 2 15 27 11 8 17 12 14 14 7 4 3 11 10 8 5 2 5 16 13 11 2 2 4 5 7 8 7 6 2 2 3 4 4 1 5 15 12 16 16 16 17 17
3 2 5 16 19 2 9 8 11 17 12 9 5 4 5 3 4 3 3 5 4 6 18 7 4 1 2 5 11 7 9 1 3 3 2 3 3 1 8 9 12 13 15 14 15
3 4 8 16 5 2 7 6 4 12 16 7 6 8 9 8 8 8 8 5 5 5 15 4 1 5 8 3 7 9 17 14 3 2 2 4 2 4 7 1 8 14 16 14 16
4 2 7 4 6 7 4 13 13 9 12 6 7 7 3 3 2 2 4 3 1 4 4 7 3 3 1 3 3 5 4 5 6 3 4 2 2 4 9 6 14 14 13 12 12
4 4 1 1 1 4 7 8 8 12 12 13 5 10 2 5 5 2 3 4 4 3 1 2 2 4 4 3 1 3 10 10 6 3 1 3 5 3 10 11 12 12 12 12 13
3 3 5 5 9 7 8 5 16 9 7 13 9 8 6 5 6 7 4 2 3 5 1 2 3 3 3 6 6 8 3 5 8 5 5 4 8 9 12 11 11 12 12 14 15
2 3 5 3 13 18 13 7 16 17 9 16 8 8 10 7 4 2 7 5 4 4 5 1 3 0 3 8 4 5 6 5 4 5 1 14 10 10 10 10 12 10 12 12 11
6 5 4 2 8 12 17 17 8 13 10 10 9 9 8 8 5 4 6 5 2 6 5 6 3 3 3 7 3 3 2 3 9 13 4 4 8 11 10 10 10 9 10 10 9
Wind_Direction
281 285 286 289 292 294 293 301 302 302 306 311 318 325 332 336 327 321 263 247 282 288 307 317 278 253 245 249 258 319 225 258 257 255 270 305 343 322 301 31 48 122 166 237 146
277 280 283 289 287 286 287 290 292 294 297 301 310 319 331 338 326 287 280 271 279 307 308 267 294 320 253 237 255 162 231 245 246 268 293 308 316 318 340 332 307 243 275 259 254
284 288 289 290 291 291 293 292 290 287 291 293 308 314 331 337 301 235 144 81 1 332 288 286 299 296 270 285 249 242 245 262 266 277 290 297 306 307 318 310 288 263 247 241 212
292 301 297 293 294 291 290 291 282 280 286 280 303 305 332 333 285 201 207 322 314 295 264 286 277 290 287 276 264 267 273 269 273 271 273 282 289 285 281 274 294 302 279 261 233
292 299 303 302 296 292 286 287 279 269 277 274 297 300 343 236 245 252 281 289 281 282 252 250 271 273 254 265 305 271 274 287 300 302 303 305 294 281 274 281 281 292 295 273 239
290 298 305 304 304 295 293 284 290 264 264 268 276 283 241 255 263 269 261 257 248 211 259 262 257 278 282 281 280 287 287 282 284 289 292 292 287 283 295 297 265 259 273 262 230
294 304 303 305 308 304 297 288 295 257 254 266 258 267 251 245 256 265 267 245 250 222 226 258 262 260 308 308 281 302 311 302 285 269 268 276 277 265 278 262 262 254 251 243 228
304 303 301 305 305 299 297 286 290 260 229 260 242 268 250 263 275 276 275 271 263 260 237 261 295 291 275 289 306 298 292 291 242 260 265 246 268 262 253 247 254 256 245 226 205
308 301 301 304 309 295 289 281 269 230 211 234 245 211 263 297 239 251 241 240 251 249 246 223 266 246 324 310 303 227 262 260 285 252 261 250 269 289 333 297 254 247 243 212 194
304 301 299 305 307 288 259 235 177 167 151 226 260 313 256 237 199 236 221 213 221 263 219 203 185 202 227 168 245 256 256 278 287 302 333 312 299 304 302 306 314 258 219 195 167
303 302 299 304 295 245 167 121 139 199 205 202 187 216 205 294 172 192 171 179 177 192 214 225 187 208 228 225 239 256 266 279 291 308 305 289 285 320 314 307 299 286 221 194 116
303 303 299 303 257 192 187 196 227 252 281 225 246 234 254 267 286 240 229 219 177 204 216 249 245 227 231 236 249 259 275 288 293 304 315 308 298 299 295 282 284 298 201 183 122
304 305 296 286 215 182 192 212 305 345 274 247 210 231 230 223 242 240 246 242 225 228 216 225 223 237 248 257 262 258 256 277 283 303 303 308 292 290 270 271 270 279 250 176 135
300 298 296 220 169 186 209 217 210 317 316 270 205 236 199 207 247 237 226 227 215 230 245 248 237 255 262 272 271 284 217 11 350 357 289 53 299 276 281 290 292 246 293 101 103
296 287 265 212 169 174 185 197 186 109 329 235 169 153 155 171 244 138 195 197 226 236 197 245 268 247 291 331 38 282 61 45 336 296 305 276 251 274 314 284 280 309 136 99 97
297 281 224 195 175 182 162 167 143 111 238 271 133 165 145 198 235 114 135 192 122 228 234 254 120 158 227 321 342 56 61 5 306 269 258 270 226 281 256 275 320 16 116 109 94
304 246 206 198 180 163 160 147 171 201 218 229 189 171 186 190 225 230 220 177 164 120 248 323 254 198 180 235 255 97 69 327 287 212 255 274 257 251 293 318 283 136 90 77 83
291 200 179 181 175 161 158 179 191 226 228 234 331 215 202 189 212 204 223 246 205 178 94 197 304 223 194 202 178 148 143 186 254 255 319 334 252 269 6 92 82 84 86 72 72
180 140 160 174 172 166 169 202 209 223 223 234 260 263 273 226 188 205 211 217 227 179 174 210 241 348 157 177 175 171 194 178 290 279 266 235 281 71 60 49 93 83 80 74 70
158 52 251 173 173 183 196 214 232 233 277 292 244 280 241 241 260 192 82 258 236 227 154 180 307 232 198 146 202 156 153 139 193 262 248 267 23 33 21 93 70 71 79 85 70
176 169 194 176 167 169 207 223 232 247 266 247 268 270 247 304 297 177 251 315 357 327 179 142 159 212 41 184 191 188 230 134 159 233 285 311 80 349 68 67 85 84 79 74 75
213 211 176 154 180 236 211 210 211 250 247 257 243 220 237 249 245 258 188 219 327 356 205 162 80 223 218 155 228 224 220 207 180 240 327 347 111 125 95 148 142 110 87 75 72
173 175 184 166 204 212 240 240 242 236 222 216 222 208 268 264 237 309 109 174 223 42 249 140 188 203 275 10 275 241 217 165 186 153 219 261 107 172 158 93 93 93 86 83 78
145 173 136 136 286 230 210 225 226 268 243 225 222 243 222 249 208 220 134 197 240 182 247 165 249 197 171 167 287 229 238 216 159 127 197 282 131 160 85 90 76 82 73 63 55
223 168 180 182 219 215 219 238 219 229 257 212 211 207 183 236 225 225 156 152 234 116 165 109 258 261 312 194 182 286 318 248 215 191 155 229 124 92 77 70 63 63 59 50 43
187 185 178 282 201 203 219 203 230 221 220 215 189 208 207 221 217 194 140 206 173 145 169 99 278 79 336 269 195 254 313 307 307 319 18 116 105 90 76 67 56 51 59 58 47
225 263 161 282 194 183 214 221 250 238 226 229 201 205 225 212 117 326 120 161 221 149 162 153 168 115 232 224 307 321 347 359 85 44 19 61 120 122 93 76 53 66 68 68 63
Height
815 815 815 815 815 814 814 814 814 814 812 811 810 808 806 802 796 789 788 784 784 783 784 782 780 779 780 782 780 778 801 796 791 782 766 746 755 741 728 732 730 730 732 731 734
811 812 811 812 811 811 811 810 811 811 811 809 809 807 805 802 796 785 779 780 780 780 783 782 780 776 784 779 780 787 800 786 773 765 765 754 752 749 746 743 739 732 728 730 730
808 808 809 808 808 807 807 807 807 808 809 808 808 807 805 803 797 779 777 778 780 779 781 780 780 779 782 777 778 777 784 771 765 759 754 755 748 743 748 749 742 742 735 728 728
805 805 805 805 803 805 803 803 804 805 806 808 807 807 805 804 801 776 776 777 777 777 779 779 778 782 783 784 770 779 766 762 758 754 753 752 746 744 744 743 736 732 731 729 729
803 802 802 802 800 801 799 800 800 802 803 806 805 806 805 803 785 777 775 776 776 777 778 778 779 779 784 778 774 772 764 758 755 754 753 749 748 742 734 734 731 730 728 728 726
799 799 799 798 798 797 794 797 796 798 800 803 803 804 805 803 774 770 772 773 774 775 776 778 776 773 775 776 780 771 764 759 753 751 749 752 742 742 737 732 730 728 727 725 724
796 795 796 794 793 793 792 794 794 795 797 800 802 801 801 783 770 767 768 771 771 770 772 773 773 776 773 776 769 768 772 762 758 753 754 750 738 741 731 729 724 722 719 719 719
792 793 793 791 788 789 788 790 792 793 795 797 798 800 790 770 765 762 762 763 764 766 766 769 770 771 773 771 772 779 776 775 754 753 747 754 735 731 722 722 719 716 713 713 713
786 790 789 787 785 786 786 787 789 791 793 797 796 797 781 765 760 757 759 759 760 760 761 764 768 773 775 784 789 782 784 777 750 751 745 749 737 721 722 719 709 705 706 707 709
783 786 784 783 782 782 784 783 787 790 792 796 796 797 773 757 753 754 753 757 758 758 759 762 771 781 782 789 793 785 782 770 761 754 752 750 741 720 717 718 714 700 703 703 707
779 780 779 779 778 778 784 784 795 792 788 775 768 763 751 748 748 751 751 754 756 759 769 762 778 784 775 772 770 769 768 766 749 747 752 747 744 740 724 724 718 709 698 700 707
773 775 775 775 774 775 782 781 779 779 771 765 760 758 753 749 757 748 748 756 759 767 763 769 766 761 759 760 763 762 764 761 751 743 750 748 747 737 727 719 717 710 695 699 708
768 769 770 769 772 775 776 778 777 776 773 746 747 742 745 751 746 744 745 748 755 761 761 763 751 747 752 754 756 753 761 760 758 747 745 751 744 735 716 711 704 696 696 690 697
761 764 765 767 772 770 774 776 778 777 788 742 732 723 731 737 737 726 734 742 746 753 756 753 747 748 748 748 750 754 749 762 764 768 769 759 759 731 724 719 706 702 699 704 706
755 757 760 762 761 765 769 775 779 779 796 720 716 710 712 730 717 717 723 733 741 743 751 744 745 748 753 749 752 757 760 766 771 774 770 756 771 713 720 714 705 705 708 710 716
748 749 754 758 757 761 766 775 777 786 774 722 712 715 719 724 718 720 724 725 728 739 742 741 745 748 751 747 749 755 762 764 769 775 770 749 752 715 720 710 713 715 713 707 720
743 743 746 749 753 759 764 773 780 775 722 715 710 710 716 721 721 721 727 737 743 754 754 742 743 744 745 754 752 763 770 783 788 772 761 727 734 727 712 705 702 715 724 716 725
741 740 742 745 749 753 762 771 762 730 724 698 706 704 713 712 717 720 727 733 733 736 745 750 755 734 739 744 749 759 769 782 770 765 750 739 740 724 717 715 723 723 723 731 734
743 740 742 743 747 752 756 752 742 724 710 715 711 716 710 704 708 715 719 723 722 726 745 746 740 727 725 731 745 755 769 759 770 761 766 745 723 719 731 724 730 727 728 735 742
743 743 742 743 745 751 751 738 726 716 712 713 718 714 711 709 711 711 724 712 713 711 721 734 746 727 725 733 739 743 748 771 773 763 750 726 725 753 750 749 744 746 741 746 752
743 743 741 742 745 753 739 736 722 713 711 715 717 718 716 714 713 719 725 722 719 717 716 732 738 737 730 735 736 741 748 753 760 759 751 737 739 770 765 761 759 756 756 758 762
740 738 740 742 748 748 735 731 715 716 710 711 715 714 717 711 714 715 719 720 720 717 722 726 736 741 733 725 725 727 736 741 760 754 756 748 746 762 760 762 759 753 762 765 769
734 740 738 741 735 737 733 724 715 712 714 717 709 709 707 712 717 715 717 721 721 725 728 732 751 743 733 733 728 728 724 732 738 749 749 752 752 752 756 752 755 762 768 771 775
730 733 737 741 739 731 725 726 724 717 707 705 702 706 711 713 710 714 725 722 722 719 728 726 723 725 733 735 735 729 724 722 732 759 747 742 745 756 750 758 762 769 771 774 777
720 716 723 731 731 729 721 716 714 710 700 698 704 706 714 719 712 715 716 724 723 724 728 733 737 722 718 723 721 724 719 718 722 729 745 735 750 760 767 771 772 775 776 777 779
714 714 714 713 715 724 722 709 710 705 706 702 705 705 708 714 711 715 722 734 724 726 728 731 743 727 731 721 720 727 723 723 722 723 725 744 767 772 775 777 781 782 785 788 792
712 708 711 710 709 717 714 705 697 697 692 690 695 701 703 706 712 713 717 717 720 729 735 737 741 738 747 725 725 739 733 728 732 747 739 754 763 775 782 788 793 792 794 797 800